Duluth International Airport
KDLH : now visible

Airfield :











YOU CAN JOIN US ON...

 
LOGIN :

Register | Disclaimer

   EN    FR    IT 

 









Legend :    VFR   Marginal VFR   IFR   Intensive IFR   Very Intensive IFR
Visi :
Ceiling :
>= 8 km
>= 3000ft
5 to 8 km
1000 to 3000 ft
1500m to 5 km
500 to 1000 ft
800 to 1500m
200 to 500 ft
< 800m
< 200 ft
Symbols :   Thunderstorms  Fog  Heavy snow  Heavy precipitations  Wind > 20 kt






- Airport Elevation : 1428 ft
- IATA code : DLH


KDLH - Duluth International

CURRENT METAR :
  • 301455Z VRB03KT 10SM FEW043 20/13 A3020 RMK AO2 SLP228 T02000133 58004

EXPIRED METARs :
  • 301355Z VRB03KT 10SM CLR 18/13 A3021 RMK AO2 SLP231 T01780133
  • 301255Z 11005KT 10SM CLR 17/13 A3021 RMK AO2 SLP229 T01720133

TAF KDLH
Valid from the 30 at 12:00 until the 31 at 12:00 UTC


301121Z 3012/3112 VRB03KT P6SM FEW150
FM302000 23006KT 5SM HZ FU BR FEW250
FM310800 28008KT 5SM HZ BR SCT100
KZMP FIR / North America



MET'MAP, your aeronautical weather chart ! - Copyright ORBIFLY December 2007 - Disclaimer

ORBIFLY MET'MAP TEAM :

Programming & Development : Alexandra Zaïnal
Concept & original design : Baudouin d'Aumeries
Assistance for programming : Marc-Olivier Méhu
Technical & hardware support : Manuel Goepfert

Contact : metmap@orbifly.com




SOURCES & CREDITS :

   NOAA       Earth
Advisory